Погода в Гельмязове

Украина / Черкасская область     49°49′29″N   31°50′04″E
темп.,
°C
ветер,
м/с
пор.,
м/с
влажн.,
%
обл.,
%
осадки,
мм/ч
давл.,
гПа
погр.,
м
19 января, ср
ср1923:00−5ссз91480100 0.0 1021995
02:00−5ссз71381100 0.1 1023796
05:00−6ссз7138690 0.0 1024627
08:00−7ссз51187100 0.0 1025460
11:00−5ссз5975100 0.0 1025500
14:00−3сз366653 0.0 1024530
17:00−4юз227970 0.0 102334
20:00−5юз26905 0.0 1021102
20 января, чт
чт2023:00−5юз37955 0.0 1020129
02:00−5ююз3696100 0.0 1018117
05:00−5ююз389587 0.0 1016191
08:00−3ююз499291 0.0 1014245
11:00−1ююз5137699 0.0 1013527
14:00+1ююз61164100 0.0 1010560
17:00−2ююз41076100 0.0 1008237
20:00−2зюз4992100 0.3 1007338
21 января, пт
пт2123:00−1зюз3798100 1.6 1006318
02:00−1юз41094100 2.1 1006456
05:00−2з61184100 1.1 1006829
08:00−4зюз6138355 1.1 1007640
11:00−2зюз81375100 0.0 10071061
14:00−2зюз91578100 0.0 10061116
17:00−3зюз8157977 0.0 1006816
20:00−3зюз8148197 0.0 1007879
22 января, сб
сб2223:00−3зюз7148282 0.0 1007745
02:00−4зюз71482100 0.0 1007736
05:00−4зюз71392100 0.1 1006706
08:00−3зюз51088100 0.3 1007652
11:00−2зюз6882100 0.1 1009824
14:00−2з5773100 0.2 1009949
17:00−4зюз2587100 0.2 101199
20:00−6юз259482 0.2 1013115
23 января, вс
вс2323:00−7юз119858 0.0 101513
02:00−8ссз119861 0.0 101610
05:00−9с119877 0.0 101821
08:00−9св239664 0.1 102065
11:00−5св239080 0.0 1022227
14:00−4ссв348795 0.1 1024464
17:00−5ссв369088 0.1 1026392
20:00−9ссв389534 0.1 1028201